Location: Chmeln�
(49.6483°N, 14.9871°E)
Time: 06:30:26
(UTC+00:00)

Sich 1 Rocket - Pass Details

Date: 18 September 2020
Orbit: 616 x 652 km, 82.5° (Epoch: 27 October)

Event Time Altitude Azimuth Distance (km) Brightness Sun altitude
Rises 17:43:24 0° 166° (SSE) 2,917 6.8 -6.8°
Reaches altitude 10° 17:45:43 10° 159° (SSE) 2,020 5.9 -7.2°
Maximum altitude 17:49:51 38° 91° (E) 985 4.1 -7.9°
Drops below altitude 10° 17:54:04 10° 24° (NNE) 2,056 6.1 -8.5°
Sets 17:56:27 0° 17° (NNE) 2,976 7.0 -8.9°
